Aérodrome :
LOGIN :

S'inscrire | Disclaimer

   EN    FR    IT 

 










Légende :    VFR   VFR Marginal   IFR   IFR Intensif   IFR Très Intensif
Visi : 
Plafond : 
>= 8 km
>= 3000ft
5 à 8 km
1000 à 3000 ft
1500m à 5 km
500 à 1000 ft
800 à 1500m
200 à 500 ft
< 800m
< 200 ft
Symboles :   Orages  Brouillard  Fortes neiges  Fortes précipitations  Vent > 20 kt
SIGMETs :   Divers  Orages  Givrage  Turbulence  Onde Orograph.  Cendres Volcan.






- Altitude de l'aérodrome : 308 ft


ESIA - Karlsborg Air Base

DERNIER METAR :
  • 271750Z AUTO 29005KT 0750 FZFG VV002 M00/M01 Q1023

METARs EXPIRÉS :
  • 271720Z AUTO 30006KT 0750 FZFG OVC002/// M00/M01 Q1022
  • 271650Z AUTO 30005KT 0550 FZFG VV002 M00/M01 Q1022
  • 271620Z AUTO 31004KT 0700 FZFG VV002 M00/M01 Q1022
  • 271550Z AUTO 29005KT 0650 FZFG VV002 M00/M01 Q1022
  • 271520Z AUTO 29007KT 0500 FZFG VV002 M00/M00 Q1022

Prévision TAF périmée.



MET'MAP, la Météo Aéronautique d'un coup d'oeil ! - Copyright ORBIFLY Décembre 2007 - Disclaimer

ORBIFLY MET'MAP TEAM :

Programmation & Développement : Alexandra Zaïnal
Sur une idée originale de : Baudouin d'Aumeries
Assistance à la programmation : Marc-Olivier Méhu
Soutien technique & logistique : Manuel Goepfert

Contact : metmap@orbifly.com




SOURCES & CREDITS :

   NOAA